Dewpoint
74 74 73 71 75 75 72 74 73 72 71 70 70 71 71 71 73 72 72 71 71 70 70 69 68 69 69 69 68 68 67 67 64 66 67 68 67 68 68 68 67 65 65
75 74 74 73 74 74 75 75 73 74 71 70 70 70 71 72 72 72 72 72 70 70 70 69 68 69 68 68 68 68 68 68 66 64 66 67 68 68 67 67 66 67 65
75 75 75 76 72 75 73 74 75 72 70 71 71 71 71 72 72 72 72 70 70 70 70 69 68 68 68 68 67 67 67 67 66 65 65 66 66 67 66 65 64 64 66
74 72 70 68 67 70 72 72 74 72 70 72 72 72 71 70 71 71 71 70 69 70 69 69 69 68 68 68 68 68 68 68 67 66 65 65 65 65 64 63 63 64 64
64 64 64 64 65 65 65 66 66 72 71 72 72 72 71 70 70 70 70 70 69 68 69 69 69 69 68 68 69 68 68 67 67 66 65 65 63 62 62 63 63 63 63
66 65 65 65 65 65 65 64 64 64 70 72 72 70 70 68 64 66 69 69 68 67 68 68 67 69 68 66 67 68 68 67 65 65 64 63 63 62 63 62 63 61 60
66 65 64 64 64 64 65 65 66 63 64 71 70 69 69 68 62 63 66 68 68 68 68 68 68 68 66 66 65 65 66 66 66 66 64 63 62 64 63 62 62 62 61
66 64 64 63 64 63 63 63 63 64 66 69 70 69 69 69 60 60 63 65 66 67 67 68 67 64 66 66 65 64 64 64 64 65 66 66 65 65 64 63 63 62 62
66 66 65 64 64 63 62 62 62 64 65 69 70 70 69 68 58 58 60 65 64 65 66 66 66 66 64 62 66 64 64 64 62 61 63 64 64 63 63 63 62 61 60
62 64 64 66 64 63 63 64 67 68 69 69 66 68 67 69 59 59 61 65 64 65 66 66 63 64 61 58 63 65 64 64 64 62 61 61 62 62 61 64 63 61 61
63 63 63 63 63 63 62 62 63 63 62 63 64 65 66 65 66 58 58 67 67 67 66 66 66 58 55 54 55 65 63 64 64 63 63 63 63 63 64 64 63 62 61
61 61 62 62 63 63 62 63 63 63 63 61 61 63 64 66 59 57 55 55 57 64 67 67 63 55 55 52 53 55 54 58 66 65 64 64 64 64 64 65 65 63 63
60 59 60 61 62 61 61 62 62 62 62 61 62 63 62 65 62 56 56 54 56 59 62 60 55 54 53 54 53 54 54 61 64 65 65 65 64 64 64 64 65 64 63
59 58 59 60 59 61 59 59 60 59 59 59 59 59 60 60 58 58 57 57 56 58 57 56 57 57 58 60 59 56 58 60 61 63 64 64 64 64 63 64 63 64 63
58 58 57 56 57 58 60 59 59 56 57 58 58 58 56 56 55 50 50 54 54 53 49 54 55 59 60 61 61 62 62 61 61 62 64 65 65 65 64 64 64 63 62
56 57 57 55 54 56 56 57 53 53 48 47 46 52 57 52 44 43 43 43 42 42 48 52 55 59 60 60 61 61 60 61 62 62 63 63 63 64 64 64 64 63 63
56 56 55 54 55 55 56 57 55 55 47 46 45 44 44 47 43 43 43 42 43 44 50 57 59 60 61 61 61 61 62 62 62 63 63 63 62 61 61 61 61 62 62
55 53 53 55 54 51 51 51 53 51 52 57 48 48 44 42 43 44 44 46 55 48 56 59 60 61 61 61 63 63 63 62 63 62 62 61 60 59 59 59 59 60 60
54 54 53 53 51 50 50 51 52 53 52 54 55 49 47 43 43 44 44 55 57 57 57 58 58 58 58 58 59 62 61 62 61 61 60 60 60 59 57 56 56 52 54
54 54 53 52 51 52 52 51 51 52 53 56 59 57 56 53 55 55 54 56 57 57 56 57 57 57 57 57 57 58 58 58 58 58 58 58 58 57 57 56 56 55 55
53 52 54 52 53 54 53 53 53 56 58 57 55 53 48 57 56 55 55 55 55 57 57 56 57 57 56 56 56 56 56 56 56 56 56 56 56 55 56 55 55 55 54
51 51 52 52 54 54 54 54 55 55 57 57 55 52 48 56 56 55 55 55 55 55 58 55 56 56 55 54 54 55 55 56 56 56 56 56 56 56 56 55 55 54 54
51 52 52 53 53 53 54 54 54 54 54 55 57 56 55 55 54 54 55 55 55 54 55 56 56 57 57 57 57 56 56 55 56 56 56 55 55 55 55 55 55 54 54
49 52 51 51 53 52 53 53 54 52 54 56 57 56 54 55 54 54 55 55 54 52 50 52 54 55 55 56 55 49 52 55 56 55 54 56 55 53 55 55 55 54 52
46 48 48 51 51 51 52 52 53 53 53 56 57 56 55 55 55 55 55 55 55 52 50 50 49 47 46 46 44 41 35 32 40 41 55 55 54 54 53 52 50 47 44
46 47 45 47 51 51 53 53 53 54 54 55 56 56 55 55 56 56 55 56 54 51 50 48 47 43 41 40 38 35 32 31 34 32 39 51 53 51 52 50 45 44 43
Lifted_Index
-9 -9 -8 -8 -9 -9 -9 -9 -8 -8 -7 -6 -5 -5 -5 -5 -6 -6 -6 -5 -5 -4 -4 -3 -3 -3 -3 -2 -2 -2 -2 -0 0 -0 -1 -1 -1 -1 -1 -1 -1 -0 0
-10 -10 -9 -9 -9 -9 -9 -9 -9 -8 -8 -7 -6 -5 -6 -6 -6 -6 -6 -5 -5 -4 -4 -3 -3 -3 -2 -2 -2 -2 -2 -1 -1 -0 -1 -1 -1 -1 -1 -1 -1 -0 0
-10 -10 -9 -9 -9 -9 -9 -9 -9 -9 -8 -7 -6 -6 -7 -7 -6 -6 -6 -5 -5 -4 -4 -3 -3 -2 -2 -2 -2 -2 -2 -1 -1 -1 -1 -1 -2 -1 -1 -1 -1 -0 0
-9 -8 -8 -8 -7 -7 -8 -8 -8 -8 -8 -8 -7 -7 -7 -7 -7 -6 -6 -5 -5 -4 -4 -4 -3 -2 -2 -2 -2 -2 -2 -1 -2 -2 -2 -2 -2 -2 -1 -1 -0 -0 0
-6 -6 -6 -6 -6 -6 -5 -5 -5 -5 -7 -8 -8 -8 -8 -7 -7 -6 -6 -5 -5 -4 -4 -4 -3 -3 -2 -2 -2 -2 -2 -2 -2 -2 -2 -2 -2 -1 -1 -1 -0 -0 -0
-4 -4 -5 -5 -5 -5 -4 -2 -2 -2 -4 -7 -8 -8 -8 -7 -7 -6 -6 -5 -5 -4 -4 -3 -3 -3 -2 -2 -2 -2 -2 -2 -2 -2 -2 -2 -2 -1 -0 -0 0 0 -0
-2 -3 -3 -3 -3 -3 -2 -1 -0 -0 -1 -5 -7 -8 -7 -7 -6 -6 -6 -5 -5 -4 -4 -3 -3 -3 -3 -2 -2 -2 -2 -1 -1 -1 -1 -1 -1 -1 -0 -0 0 0 -0
-2 -2 -2 -1 -1 -0 -0 -0 0 1 -0 -3 -6 -6 -6 -6 -6 -5 -5 -4 -4 -4 -4 -4 -3 -3 -2 -2 -2 -2 -1 -1 -1 -1 -0 -1 -1 -1 -1 -1 -0 -0 -0
-2 -2 -2 -1 -0 1 1 0 1 0 -1 -3 -4 -4 -4 -5 -5 -5 -4 -3 -3 -3 -3 -3 -3 -2 -2 -2 -2 -1 -1 -1 -0 0 0 0 -0 -1 -1 -1 -0 0 0
-1 -1 -1 -1 -0 0 1 1 0 -1 -2 -3 -2 -2 -3 -4 -5 -4 -4 -4 -3 -3 -2 -2 -2 -2 -2 -2 -2 -1 -1 -0 0 0 1 1 0 -0 -1 -0 0 1 1
1 1 0 0 0 1 1 1 0 -1 -2 -2 -2 -1 -2 -3 -3 -3 -3 -3 -4 -3 -3 -3 -3 -3 -2 -2 -2 -1 -1 -0 0 0 0 0 0 0 -0 0 0 1 1
2 2 2 2 2 2 2 2 2 1 0 -1 -1 -1 -1 -0 -0 -1 -2 -3 -3 -4 -3 -3 -3 -3 -2 -2 -1 -1 -0 0 0 0 0 0 -0 -0 0 0 0 0 0
2 2 2 2 2 3 3 3 4 3 2 2 1 1 1 1 1 0 -1 -2 -2 -2 -2 -2 -2 -2 -1 -1 -1 -0 0 1 1 1 1 0 0 0 0 0 1 1 1
2 2 2 2 3 3 3 4 4 4 4 4 4 4 3 3 2 2 1 1 1 0 -0 -0 -0 -0 -0 0 0 1 1 2 2 2 1 1 1 1 1 1 1 1 1
2 3 3 3 3 3 3 4 4 4 4 5 5 5 5 5 4 3 3 3 3 2 2 2 1 1 1 1 1 1 2 2 3 3 2 2 1 1 1 1 1 1 1
3 3 3 3 3 3 3 3 3 3 4 4 4 4 4 4 4 4 3 4 3 2 2 2 2 1 1 1 1 1 2 2 3 3 3 2 2 2 1 1 1 0 0
2 3 3 3 3 3 3 3 3 3 3 2 2 1 2 2 3 3 3 4 3 2 2 2 1 1 1 1 1 1 2 2 2 2 2 2 2 2 2 1 1 1 1
2 2 3 3 3 3 3 4 4 4 3 2 1 0 1 1 2 3 3 4 4 3 3 2 2 2 1 2 2 2 2 2 2 2 2 2 2 2 2 2 2 2 2
2 3 3 3 3 4 4 4 4 4 3 2 1 0 1 1 2 3 4 5 5 4 4 3 3 3 3 2 2 2 2 2 2 2 2 2 2 2 2 2 3 3 3
3 3 3 3 3 3 3 3 3 3 2 1 1 1 1 2 2 3 4 5 5 5 5 4 4 4 4 3 3 2 2 2 2 2 2 2 2 2 2 2 3 3 3
3 3 3 3 3 3 3 3 2 1 1 0 1 1 2 2 3 4 4 5 5 5 5 5 5 4 4 4 3 3 3 3 3 3 3 2 2 2 2 2 3 3 4
3 3 3 3 3 2 2 2 1 1 0 0 0 1 1 2 3 4 4 4 4 4 4 4 4 4 4 4 4 4 4 4 3 3 3 3 3 3 3 4 4 4 4
3 3 3 3 3 2 2 2 2 1 1 0 0 0 1 2 2 3 4 4 4 4 4 4 4 4 4 4 4 4 4 4 4 4 4 3 3 3 4 4 5 5 5
3 3 3 3 3 2 2 2 2 2 1 1 0 0 0 1 2 3 3 3 3 4 4 4 4 4 4 4 4 4 4 3 3 3 3 3 3 3 3 4 4 4 5
4 4 4 3 3 2 2 2 2 1 1 0 0 0 0 0 1 1 2 2 2 3 4 4 4 4 4 4 4 3 3 3 3 3 3 3 3 3 3 3 4 4 5
5 4 4 4 3 2 1 1 1 1 1 0 -0 -0 0 0 0 1 1 1 2 3 3 4 4 4 4 5 4 4 3 3 3 3 3 3 3 3 3 4 4 5 5